Location: T. Spence Memorial Observatory
(32.7356°N, 82.2098°W)
Time: 23:39:03
(UTC-04:00)

Daily predictions for brighter satellites

Satellite Brightness Start Highest point End
(mag) Time Altitude Azimuth Time Altitude Azimuth Time Altitude Azimuth
USA 215 3.3 19:34:40 10° NE 19:41:14 82° SE 19:47:46 10° SW
Cosmos 2278 Rocket 2.3 19:36:54 10° NNW 19:42:29 59° ENE 19:48:02 10° SSE
Cosmos 1816 Rocket 4.5 19:37:16 10° N 19:43:31 81° E 19:49:40 10° S
Meteor 2-5 Rocket 3.7 19:38:14 10° N 19:43:51 71° E 19:49:21 10° SSE
Meteor 1-29 4.5 19:43:25 10° NE 19:45:51 18° E 19:48:17 10° SE
Meteor 1-24 Rocket 4.1 19:43:06 10° N 19:48:24 41° ENE 19:53:30 10° SSE
Meteor 1-28 Rocket 3.3 19:45:09 10° NNE 19:48:47 51° E 19:52:23 10° S
SJ-6B 3.2 19:45:59 10° SE 19:49:41 41° ENE 19:53:28 10° N
Cosmos 1378 4.3 19:46:42 10° NNE 19:49:46 24° ENE 19:52:48 10° SE
Cosmos 1707 2.6 19:48:40 10° N 19:52:31 71° E 19:56:21 10° SSE
Cosmos-2242 4.4 19:50:25 10° SE 19:53:18 18° E 19:56:13 10° NE
Helios 1B rocket 2.8 19:58:43 10° NNE 20:02:37 42° E 20:06:30 10° S
SEDSat Delta rocket 4.2 19:57:39 10° WSW 20:04:17 70° SSE 20:10:14 14° E
SeaSat 1 3.6 20:02:13 10° ENE 20:06:00 22° ESE 20:09:46 10° SSE
Resurs 01 Rocket 2.2 20:02:56 10° SE 20:07:00 37° ENE 20:11:07 10° N
Cosmos 1408 Rocket 4.5 20:03:27 10° NNE 20:07:09 26° ENE 20:10:47 10° SE
NOSS 3-2 (A) 3.4 20:02:43 10° SSW 20:08:42 90° ESE 20:15:09 10° NNE
SAR-Lupe-4 3.6 20:05:22 10° S 20:08:55 80° WSW 20:12:30 10° NNW
Cosmos 2333 Rocket 4.3 20:04:32 10° WSW 20:09:33 30° WNW 20:14:35 10° N
Resurs 1-3 4.4 20:07:15 10° SE 20:11:06 31° ENE 20:14:58 10° N
Okean 3 Rocket 3.6 20:09:09 10° N 20:13:42 83° E 20:18:15 10° S
CZ-4B DEB 4.5 20:15:36 17° ENE 20:15:36 17° ENE 20:17:31 10° NNE
ASC 2 Rocket 4.4 20:12:41 10° WSW 20:16:11 25° S 20:18:42 14° SE
Cosmos 1484 Rocket 4.4 20:12:46 10° SSW 20:16:18 37° W 20:19:54 10° NNW
Spot 1 4.3 20:12:23 10° SSE 20:17:12 62° ENE 20:21:46 10° N
Atlas Centaur 2 3.2 20:14:37 10° W 20:23:08 68° SSW 20:28:58 19° ESE
ATLAS CENTAUR R/B 1.1 20:21:44 10° NNW 20:25:51 80° ENE 20:28:47 16° SSE
BREEZE-M DEB (TANK) 4.3 20:22:03 10° NW 20:26:07 86° SW 20:41:40 10° SE
Cosmos 1072 Rocket 4.5 20:20:09 10° S 20:26:16 87° W 20:32:24 10° N
GPS 2-04 Rocket1 3.5 20:23:46 10° SW 20:26:52 29° SSE 20:27:41 26° SE
ALOS 2.9 20:26:02 19° SE 20:28:48 35° ENE 20:33:02 10° N
Abrixas rocket 4.5 20:27:17 10° W 20:29:58 22° SW 20:32:38 10° S
In-Cosmos 22 4.3 20:28:54 10° N 20:34:35 56° E 20:40:11 10° SSE
Nadezhda 4 Rocket 4.5 20:29:29 10° NNE 20:35:14 37° ENE 20:38:48 20° SE
Cosmos 1766 4.4 20:32:16 10° SSW 20:36:03 45° W 20:39:52 10° N
Spot 2 Rocket 3.4 20:31:36 10° SSE 20:36:39 85° ENE 20:41:42 10° NNW
FREGAT/IRIS 3.9 20:33:41 10° S 20:36:39 44° W 20:39:38 10° NNW
ASTRO E2 2.7 20:33:31 10° W 20:37:33 73° S 20:38:55 39° ESE
OAO 3 Rocket 3.3 20:39:15 10° W 20:44:01 71° N 20:46:04 34° ENE
Cosmos 2056 Rocket 3.9 20:38:44 10° NNW 20:44:07 66° WSW 20:49:28 10° S
Helios 1A 2.9 20:40:38 10° SSE 20:44:49 85° WSW 20:49:01 10° NNW
NOSS 3-2 (C) 3.9 20:39:49 10° SW 20:45:44 61° WNW 20:52:08 10° NNE
CENTAUR R/B 3.0 20:43:56 10° S 20:48:51 32° ESE 20:48:51 32° ESE
ATLAS 5 CENTAUR R/B 2.3 20:45:22 10° SW 20:49:59 60° WNW 20:54:59 10° NNE
CZ-2D R/B 3.6 20:52:08 45° NE 20:52:08 45° NE 20:55:28 10° N
Gbstr 26 Del rocket 4.3 20:48:35 10° S 20:51:02 26° SSE 20:51:02 26° SSE
Cosmos 1953 2.5 20:48:29 10° SSW 20:52:28 70° W 20:56:26 10° N
Meteosat 1 Rocket2 4.5 20:48:04 10° SW 20:53:00 26° SSE 20:53:29 26° SSE
ASTEX 1 3.3 20:49:36 10° NNE 20:54:28 61° E 20:59:17 10° S
Meteor 2-12 Rocket 4.4 20:50:06 10° S 20:56:15 88° W 21:02:26 10° N
SL-16 R/B 3.9 20:51:23 10° SW 20:56:29 34° WNW 21:01:37 10° N
Cosmos 2034 Rocket 4.3 20:54:21 10° SSW 21:00:33 68° W 21:06:50 10° N
Cosmos 1766 Rocket 4.2 21:05:01 10° NNW 21:09:16 53° W 21:12:50 14° SSW
H-2A R/B 3.2 21:12:11 57° N 21:12:11 57° N 21:15:21 10° N
SL-8 R/B 3.7 21:14:09 10° SW 21:18:55 77° NW 21:19:07 75° N
FENGYUN 3A 4.2 21:25:39 24° S 21:28:46 56° W 21:34:04 10° NNW
Cosmos 1452 Rocket 4.4 21:35:50 10° NNW 21:40:50 45° WSW 21:41:52 40° SW
SeaSat 1 3.8 21:39:00 10° N 21:43:33 38° WNW 21:48:05 10° SW
Resurs 01 Rocket 4.5 21:40:57 10° SW 21:43:34 15° W 21:46:10 10° WNW
Cosmos 2369 Rocket 3.7 21:41:03 10° N 21:43:36 25° NNE 21:43:36 25° NNE
SEDSat Delta rocket 4.1 21:44:12 10° W 21:50:22 72° WSW 21:50:22 72° WSW
BREEZE-M DEB (TANK) 4.3 21:51:23 10° SW 22:08:58 75° S 22:08:58 75° S
Atlas Centaur 2 3.8 22:05:09 10° W 22:11:38 36° SW 22:11:38 36° SW
CENTAUR R/B 4.4 22:34:04 10° WSW 22:47:41 - NNE 22:36:16 21° W
